Roseburg, OR

3:11 PM PST on November 13, 2019 (GMT -0800)
Roseburg Regional

Weather History for KRBG - September, 2019

Change the Weather History Date:

Monday, September 16, 2019

  Actual Average Record
Temperature  
Mean Temperature 61 °F 65 °F  
Max Temperature 69 °F 79 °F 93 °F (2008)
Min Temperature 53 °F 51 °F 39 °F (1936)
Degree Days  
Heating Degree Days 4 2  
Month to date heating degree days 8 20  
Since 1 July heating degree days 13 41  
Cooling Degree Days 0 2  
Month to date cooling degree days 70 48  
Year to date cooling degree days 673 459  
Growing Degree Days 12 (Base 50)    
Moisture  
Dew Point 52 °F    
Average Humidity 75    
Maximum Humidity 100    
Minimum Humidity 49    
Precipitation  
Precipitation 0.10 in 0.02 in 0.38 in (1996)
Month to date precipitation 1.51 0.40  
Year to date precipitation 24.28 20.05  
Sea Level Pressure  
Sea Level Pressure 29.89 in    
Wind  
Wind Speed 3 mph (South)    
Max Wind Speed 14 mph    
Max Gust Speed 20 mph    
Visibility 9 miles    
Events Rain , Thunderstorm    
T = Trace of Precipitation, MM = Missing Value Source: NWS Daily Summary

Daily Weather History Graph

Daily Weather History Graph

Search for Another Location

Airport or City:

Astronomy

Sep. 16, 2019 Rise Set
Actual Time 6:53 AM PDT 7:21 PM PDT
Civil Twilight 6:25 AM PDT 7:50 PM PDT
Nautical Twilight 5:51 AM PDT 8:24 PM PDT
Astronomical Twilight 5:16 AM PDT 8:58 PM PDT
Moon 8:55 PM PDT (9/16) 9:08 AM PDT (9/16)
Length of Visible Light 13h 25m
Length of Day
12h 27m
Waning Gibbous, 94% of the Moon is Illuminated
Sep 16
Waning Gibbous
Sep 21
Last Quarter
Sep 28
New
Oct 5
First Quarter
Oct 13
Full

Hourly Weather History & Observations

Time (PDT) Temp. Dew Point Humidity Pressure Visibility Wind Dir Wind Speed Gust Speed Precip Events Conditions
12:20 AM 57.9 °F 57.9 °F 100% 29.84 in 2.5 mi Calm Calm - 0.04 in Rain Rain
12:28 AM 57.9 °F 57.9 °F 100% 29.84 in 5.0 mi Calm Calm - 0.05 in Rain Light Rain
12:53 AM 57.0 °F 57.0 °F 100% 29.84 in 10.0 mi Calm Calm - 0.05 in   Mostly Cloudy
1:53 AM 55.0 °F 54.0 °F 96% 29.84 in 10.0 mi Calm Calm - N/A   Partly Cloudy
2:22 AM 55.9 °F 54.0 °F 93% 29.84 in 9.0 mi Calm Calm - N/A   Mostly Cloudy
2:53 AM 55.9 °F 55.0 °F 97% 29.83 in 10.0 mi Calm Calm - N/A   Overcast
3:31 AM 55.9 °F 54.0 °F 93% 29.83 in 10.0 mi Calm Calm - N/A   Overcast
3:53 AM 55.9 °F 55.0 °F 97% 29.83 in 9.0 mi Calm Calm - N/A   Overcast
4:53 AM 55.9 °F 54.0 °F 93% 29.84 in 4.0 mi SSE 3.5 mph - 0.01 in Rain Rain
5:53 AM 55.9 °F 54.0 °F 93% 29.85 in 10.0 mi Calm Calm - 0.03 in   Overcast
6:53 AM 55.0 °F 53.1 °F 93% 29.86 in 10.0 mi South 4.6 mph - 0.01 in   Overcast
7:15 AM 55.9 °F 53.1 °F 90% 29.87 in 9.0 mi SSE 4.6 mph - N/A   Overcast
7:53 AM 55.9 °F 53.1 °F 90% 29.88 in 10.0 mi Calm Calm - N/A   Mostly Cloudy
8:08 AM 55.9 °F 54.0 °F 93% 29.87 in 10.0 mi South 3.5 mph - N/A   Overcast
8:27 AM 55.9 °F 53.1 °F 90% 29.87 in 10.0 mi Calm Calm - N/A   Mostly Cloudy
8:53 AM 57.0 °F 54.0 °F 89% 29.88 in 10.0 mi Calm Calm - N/A   Mostly Cloudy
9:16 AM 57.0 °F 54.0 °F 89% 29.88 in 10.0 mi SSE 3.5 mph - N/A   Scattered Clouds
9:42 AM 57.9 °F 54.0 °F 87% 29.88 in 10.0 mi Calm Calm - N/A   Mostly Cloudy
9:53 AM 59.0 °F 55.0 °F 87% 29.88 in 10.0 mi Calm Calm - N/A   Scattered Clouds
10:06 AM 60.1 °F 54.0 °F 80% 29.89 in 10.0 mi Variable 3.5 mph - N/A   Mostly Cloudy
10:13 AM 60.1 °F 54.0 °F 80% 29.88 in 10.0 mi SE 5.8 mph - N/A   Scattered Clouds
10:53 AM 63.0 °F 52.0 °F 67% 29.88 in 10.0 mi SE 4.6 mph - N/A   Mostly Cloudy
11:53 AM 64.0 °F 51.1 °F 63% 29.88 in 10.0 mi Calm Calm - 0.00 in Rain Light Rain
12:53 PM 61.0 °F 48.9 °F 64% 29.89 in 10.0 mi SSE 9.2 mph - 0.00 in   Mostly Cloudy
1:53 PM 66.0 °F 48.9 °F 54% 29.90 in 10.0 mi Variable 6.9 mph - N/A   Overcast
2:05 PM 62.1 °F 50.0 °F 65% 29.90 in 1.8 mi NNW 3.5 mph - 0.02 in Rain Heavy Rain
2:14 PM 62.1 °F 52.0 °F 70% 29.90 in 3.0 mi ESE 4.6 mph - 0.04 in Rain Light Rain
2:53 PM 63.0 °F 53.1 °F 70% 29.90 in 10.0 mi NNW 4.6 mph - 0.05 in   Mostly Cloudy
3:53 PM 68.0 °F 48.0 °F 49% 29.90 in 10.0 mi SW 12.7 mph 16.1 mph N/A   Mostly Cloudy
4:53 PM 68.0 °F 48.9 °F 50% 29.91 in 10.0 mi SW 10.4 mph - N/A   Mostly Cloudy
5:36 PM 66.9 °F 48.9 °F 52% 29.92 in 10.0 mi Variable 4.6 mph - N/A Thunderstorm Thunderstorm
5:51 PM 66.2 °F 48.2 °F 52% 29.93 in 10.0 mi SW 10.4 mph 17.3 mph N/A   Partly Cloudy
5:53 PM 66.9 °F 48.0 °F 51% 29.93 in 10.0 mi SW 10.4 mph 17.3 mph N/A   Partly Cloudy
6:53 PM 64.9 °F 48.9 °F 56% 29.94 in 10.0 mi Variable 4.6 mph - N/A   Partly Cloudy
7:53 PM 63.0 °F 50.0 °F 63% 29.96 in 10.0 mi Calm Calm - N/A   Mostly Cloudy
8:53 PM 59.0 °F 52.0 °F 78% 29.97 in 10.0 mi NW 3.5 mph - N/A   Clear
9:53 PM 57.0 °F 51.1 °F 81% 29.98 in 10.0 mi Calm Calm - N/A   Mostly Cloudy
10:53 PM 55.0 °F 50.0 °F 83% 29.99 in 10.0 mi Calm Calm - N/A   Partly Cloudy
11:53 PM 54.0 °F 50.0 °F 86% 29.99 in 10.0 mi Calm Calm - N/A   Scattered Clouds